COSMOS 2251 DEB, 34949

Orbit data source: Space-Track

COSMOS 2251 DEB, 34949 is space debris in LEO originally from a launch on Wed, 16 Jun 1993 UTC launched from the Plesetsk Missile And Space Complex (PKMTR). The debris from Iridium 33, an American commercial communications satellite, has been tracked extensively since its accidental collision with the defunct Russian satellite Cosmos 2251 in 2009. This event, occurring at high speed in low Earth orbit (LEO), generated thousands of pieces of space debris, significantly increasing the risk of further collisions. The Iridium 33 debris cloud has impacted space traffic management and orbital debris mitigation strategies, making it a subject of ongoing study in space situational awareness.

Loading next visibility...
Identifier
34949, 1993-036AEC
Orbit
LEO
Country
Flag of CISCIS
Related business
Manufacturer
Unknown
Mission
Spacecraft
Bus & Motor
Unknown
Mass
Unknown
Launch date (UTC)
1993-06-16 (33 years ago)
Launch vehicle
Unknown
Launch site
Plesetsk Missile And Space Complex (PKMTR)
Object type
Payload
Rocket body
Debris
Shape & HBR
Unknown shape, 0.1 m
Radar Cross Section
Small (<0.1 m²)

Expand to show TLE details & history
Last TLE update: 15 hours ago

TLE from 15 hours ago
0 COSMOS 2251 DEB
1 34949U 93036AEC 26035.17849013  .00002779  00000-0  40404-3 0  9999
2 34949  74.0199   5.2265 0077585 137.6608 223.0590 14.74389894891493
Epoch: 2026-02-04T04:17Z
TLE epoch observation values (Epoch: 2026-02-04T04:17:01.547Z)
Latitude
Longitude
166.62126°
Altitude
689.772 km
Speed
7.49 km/s
True Right ascension
00h 20m 54s
True Declination
0° 00' 00"
Sunlit
Object was in daylight at epoch
Visualization orbit readout
Latitude
Unknown
Longitude
Unknown
Altitude
Unknown
Speed
Unknown
Apparent Right ascension
Unknown
Apparent Declination
Unknown
Sunlit
N/A
Visualization observer readout
Local Sidereal Time
21:39:46
Azimuth
Unknown
Elevation
Unknown
Doppler factor
Unknown
Orbital elements
Apogee altitude
699.158 km
Perigee altitude
590.185 km
Semi-major axis
7,022.809 km
Eccentricity
0.00776
Inclination
74.0199°
RAAN
5.2265°
Arg. of periapsis
137.6608°
True anomaly
222.45628°
Mean anomaly
223.059°
Eccentric anomaly
222.75721°
Mean motion
3.68788 °/min
Orbital period
97.62 mins
BSTAR
0.00040404
Loading maneuver chart data...
Computing Atmospheric mass density...

Documentation

Showing up to 5 results
|